COSMOS 374 DEB

Satellite information

Favourite Embed

Satellite Type and Status

DEBRISIN ORBIT

Key statistics

Satellite COSMOS 374 DEB at a glance.

Uptime

20041

Days in orbit

Revolutions

≈ 13.0

Per day

Orbit

LEO

Low Earth Orbit

Inclination

63.0

Latest

Satellite identification and parameters

Extended collection of information and parameters for COSMOS 374 DEB.

Object identification

Identified? True

Debris? True

Object name: COSMOS 374 DEB

International designator: 1970-089BS

Object number (NORAD): 5337

Object ID (CCSDS): 5337

Country: COMMONWEALTH OF INDEPENDENT STATES (CIS)

Current information (Y/N): Y

RCS size: SMALL

Orbital parameters

Period: 110.862 minutes

Inclination: 62.9601 deg

SMA: 7644.495 km

Apoapsis: 1841.984 km

Periapsis: 690.737 km

RAAN: 150.4853 deg

Eccentricy: 0.07529912

Argument of periapsis: 309.2233 deg

Mean anomaly: 44.4197 deg

Mean motion: 12.98911388 rev/day

Mean motion (dot): 0.0000086 rev/day2

B* drag term: 0.00082842379 1/REarth

Two-line elements (TLE)

Creation date: Aug. 28, 2025, 11:13 p.m.

Reference frame: TEME

Reference center: EARTH

Epoch: Aug. 28, 2025, 12:06 a.m. UTC

TLE line 0: 0 COSMOS 374 DEB

TLE line 1: 1 05337U 70089BS 25240.00464763 .00000860 00000-0 82842-3 0 9996

TLE line 2: 2 05337 62.9601 150.4853 0752991 309.2233 44.4197 12.98911388112402

Live tracking on map

Real-time ground track for satellite COSMOS 374 DEB.

In-orbit conjunctions

A list of the most updated potential collisions computed for object COSMOS 374 DEB.

Target Orbit TCA Probability of collision Miss distance Type
TRIAD 1 SSO 2025-04-12 09:33:19 0.0002029242 110.0 (m) PAYLOAD

Associated space launch

The I2P satellites were the first soviet coorbital ASAT system.

COSMOS 374 DEB was lifted into orbit during the mission ‘Tsiklon-2 | I2P 4’, on board a Tsiklon-2 space rocket.

The launch took place on Oct. 23, 1970, 4:42 a.m. from 90/20.

For more information about the launch, click the button.

Launch to space Tsiklon-2 | I2P 4
Tsiklon-2 | I2P 4

Agency: N/A

Status: Launch Successful

Launch date: Oct. 23, 1970, 4:42 a.m. UTC

Rocket: Tsiklon-2

Launch pad: 90/20

Location: Baikonur Cosmodrome, Republic of Kazakhstan

...

Latest news about this satellite

There are no fresh news available about this satellite. Check back as we update our databases every day.


Newsletter sign-up

Weekly statistics, charts and insights to help you stay on top of the space industry.